CAPE
28 21 17 8 11 2 4 23 21 8 1 0 0 0 0 0 0 0 0 0 0 0 0 0 0 0 0 0 0 0 0 0 0 0 0 0 0 0
19 8 12 4 2 1 3 12 22 21 22 0 0 0 0 0 0 0 0 0 0 0 0 0 0 0 0 0 0 0 0 0 0 0 0 0 0 0
5 1 0 0 0 3 4 6 4 12 13 0 0 0 0 0 0 0 0 0 0 0 0 0 0 0 0 0 0 0 0 0 0 0 0 0 0 0
0 4 0 0 0 1 3 2 8 0 0 1 4 0 0 0 1 0 0 0 0 0 0 0 0 0 0 0 0 0 0 0 0 0 0 0 0 0
0 0 0 0 0 0 0 0 4 14 12 20 9 5 0 0 0 0 0 0 0 0 0 0 0 0 0 0 0 0 0 0 0 0 0 0 0 0
0 0 0 0 0 0 0 0 12 29 38 21 12 1 0 0 0 0 0 2 0 0 0 0 0 0 0 0 0 0 0 0 0 0 0 0 0 0
0 0 0 0 0 0 0 0 4 33 47 24 3 1 0 0 0 0 1 1 1 0 0 0 0 0 0 0 0 0 0 0 0 0 0 0 0 0
0 0 0 0 0 0 0 0 10 22 24 14 0 1 0 1 1 0 0 0 1 1 0 2 0 0 0 1 2 0 0 0 0 0 0 0 0 0
0 0 0 0 0 0 0 0 0 0 1 0 1 1 0 0 0 1 0 0 0 1 0 1 1 0 2 3 0 0 0 0 0 0 0 0 0 0
0 0 0 0 0 1 0 0 1 9 7 4 2 3 1 1 0 0 0 1 1 1 0 0 0 0 0 0 0 0 0 0 0 0 0 0 0 0
0 0 0 0 0 0 0 0 20 16 4 5 4 2 2 1 2 0 1 1 1 0 0 0 0 0 0 0 0 0 0 0 0 0 0 0 0 0
0 0 0 0 0 0 1 11 12 8 3 1 1 0 0 1 1 0 0 0 1 0 0 0 0 0 0 0 0 0 0 0 0 0 0 0 0 0
1 11 8 4 5 5 3 3 3 1 0 2 2 2 1 2 0 0 0 0 0 0 0 0 0 0 0 0 0 0 0 0 0 0 0 0 0 0
10 5 3 5 5 4 3 2 2 1 1 1 0 1 1 0 0 0 0 0 0 0 0 0 0 0 0 0 0 0 0 0 0 0 0 0 0 0
2 1 2 1 1 0 0 0 0 0 1 1 0 0 0 0 0 0 0 0 0 0 0 0 0 0 0 0 0 0 0 0 0 0 0 0 0 0
0 2 0 0 0 0 0 0 0 0 0 0 0 0 0 0 0 0 0 0 0 0 0 0 0 0 0 0 0 0 0 0 0 0 0 0 0 0
1 1 0 0 1 0 0 0 0 0 0 0 0 0 0 0 0 0 0 0 0 0 0 0 0 0 0 0 0 0 0 0 0 0 0 0 0 0
0 0 0 0 0 0 0 0 0 0 0 0 0 0 0 0 0 0 0 0 0 0 0 0 0 0 0 0 0 0 0 0 0 0 0 0 0 0
0 0 0 0 0 0 0 0 0 0 0 0 0 0 0 0 0 0 0 0 0 0 0 0 0 0 0 0 0 0 0 0 0 0 0 0 0 0
0 0 0 0 0 0 0 0 0 0 0 0 0 0 0 0 0 0 0 0 0 0 0 0 0 0 0 0 0 0 0 0 0 0 0 0 0 2
0 0 0 0 0 0 0 0 0 0 0 0 0 0 0 0 0 0 0 0 0 0 0 0 0 0 0 0 0 0 0 0 0 0 0 0 0 0
0 0 0 0 0 0 0 0 0 0 0 0 0 0 0 0 0 0 0 0 0 0 0 0 0 0 0 0 0 0 0 0 0 0 0 0 0 0
0 0 0 0 0 0 0 0 0 0 0 0 0 0 0 0 0 0 0 0 0 0 0 0 0 0 0 0 0 0 0 0 0 0 0 0 0 1
CIN
-64 -29 -44 -66 -67 -45 -49 -50 -21 -11 -24 0 0 0 0 0 0 0 0 0 0 0 0 0 0 0 0 0 0 0 0 0 0 0 0 0 0 0
-77 -68 -85 -98 -100 -62 -61 -49 -40 -23 -7 -3 0 0 0 0 0 0 0 0 0 0 0 0 0 0 0 0 0 0 0 0 0 0 0 0 0 0
-106 -45 0 -30 0 -78 -61 -60 -52 -44 -19 0 0 0 0 0 0 0 0 0 0 0 0 0 0 0 0 0 0 0 0 0 0 0 0 0 0 0
0 -103 0 -68 0 -59 -55 -52 -56 -3 -2 -30 -75 0 0 0 -139 0 0 0 0 0 0 0 0 0 0 0 0 0 0 0 0 0 0 0 0 0
0 0 0 0 0 0 0 0 -104 -74 -42 -13 -19 -23 0 0 0 0 0 0 0 0 0 0 0 0 0 0 0 0 0 0 0 0 0 0 0 0
0 0 0 0 0 0 0 0 -79 -26 -27 -11 -14 -7 0 0 0 0 0 0 0 0 0 0 0 0 0 0 0 0 0 0 0 0 0 0 0 0
0 0 0 0 0 0 0 0 -73 -35 -10 -8 -30 0 0 0 0 0 0 0 0 0 0 0 0 0 0 0 0 0 0 0 0 0 0 0 0 0
0 0 0 0 0 0 0 -25 -65 -48 -30 -27 -3 0 0 0 0 0 0 0 0 0 0 0 0 0 0 0 0 0 0 0 0 0 0 0 0 0
0 0 0 0 0 0 -6 0 0 0 0 0 -46 0 0 0 0 0 0 0 0 0 0 0 0 0 0 0 0 0 0 0 0 0 0 0 0 0
0 0 0 -13 0 -26 0 0 0 0 0 0 0 0 0 0 0 0 0 0 0 0 0 0 0 0 0 0 0 0 0 0 0 0 0 0 0 0
0 0 0 0 0 0 0 0 0 0 0 0 0 0 0 0 0 0 0 0 0 0 0 0 0 0 0 0 0 0 0 0 0 0 0 0 0 0
0 0 0 0 0 0 0 0 0 0 0 0 0 0 0 0 0 0 0 0 0 0 0 0 0 0 0 0 0 0 0 0 0 0 0 0 0 0
0 0 0 0 0 0 0 0 0 0 0 0 0 0 0 0 0 0 0 0 0 0 0 0 0 0 0 0 0 0 0 0 0 0 0 0 0 0
0 0 0 0 0 0 0 0 0 0 0 0 0 0 0 0 0 0 0 0 0 0 0 0 0 0 0 0 0 0 0 0 0 0 0 0 0 0
0 0 0 0 0 0 0 0 0 0 0 0 0 0 0 0 0 0 0 0 0 0 0 0 0 0 0 0 0 0 0 0 0 0 0 0 0 0
0 0 0 0 0 0 0 0 0 0 0 0 0 0 0 0 0 0 0 0 0 0 0 0 0 0 0 0 0 0 0 0 0 0 0 0 0 0
0 0 0 0 0 0 0 0 0 0 0 0 0 0 0 0 0 0 0 0 0 0 0 0 0 0 0 0 0 0 0 0 0 0 0 0 0 0
0 0 0 0 0 0 0 0 0 0 0 0 0 0 0 0 0 0 0 0 0 0 0 0 0 0 0 0 0 0 0 0 0 0 0 0 0 0
0 0 0 0 0 0 0 0 0 0 0 0 0 0 0 0 0 0 0 0 0 0 0 0 0 0 0 0 0 0 0 0 0 0 0 0 0 0
0 0 0 0 0 0 0 0 0 0 0 0 0 0 0 0 0 0 0 0 0 0 0 0 0 0 0 0 0 0 0 -0 0 0 0 0 -0 -0
0 0 0 0 0 0 0 0 0 0 0 0 0 0 0 0 0 0 0 0 0 0 0 0 0 0 0 0 0 0 0 0 0 0 0 0 0 0
0 0 0 0 0 0 0 0 0 0 0 0 0 0 0 0 0 0 0 0 0 0 0 0 0 0 0 0 0 0 0 0 0 0 0 0 -1 -0
0 0 0 0 0 0 0 0 0 0 0 0 0 0 0 0 0 0 0 0 0 0 0 0 0 0 0 0 0 0 0 0 0 0 0 0 0 0
Wind_Speed
18 20 26 28 31 29 24 24 30 37 36 30 27 23 22 23 23 25 26 26 25 25 24 22 23 23 22 22 20 18 20 21 22 23 23 23 23 24
19 22 23 28 33 33 32 32 31 29 35 30 30 27 27 27 26 27 28 25 25 26 26 24 24 24 24 22 21 19 20 21 23 23 24 24 24 25
21 22 25 29 34 33 33 33 30 28 32 35 33 33 30 29 28 27 26 24 25 26 26 26 27 26 23 23 21 22 22 23 24 24 25 25 25 27
23 24 24 29 28 27 27 27 29 30 32 35 34 34 33 31 30 28 28 26 25 23 23 22 22 23 25 24 24 25 22 24 26 26 26 26 26 27
22 24 24 26 25 26 27 29 30 32 32 35 37 36 34 34 33 33 30 28 26 26 23 23 23 23 21 24 22 29 26 28 28 25 25 26 26 26
23 23 24 26 26 28 29 29 30 33 33 33 35 38 38 33 31 35 35 31 31 28 24 23 25 24 20 21 22 29 30 30 29 26 27 26 26 28
25 26 26 26 26 27 30 30 31 33 36 40 41 40 38 37 34 35 34 31 28 28 26 25 24 27 25 23 27 30 30 29 28 30 29 29 30 31
26 27 27 28 29 29 29 31 32 34 36 37 38 40 40 38 36 36 30 30 32 28 25 24 22 27 26 27 28 27 31 32 33 33 33 34 32 32
26 27 28 28 29 30 31 32 33 33 35 35 38 41 44 37 34 33 33 31 31 28 24 28 26 28 25 25 28 28 34 35 34 34 34 33 33 33
30 31 32 33 32 31 30 31 33 35 35 35 35 34 33 31 30 29 27 26 25 27 26 30 25 28 24 23 27 30 33 34 35 36 36 35 35 34
33 33 32 31 29 26 27 28 28 28 25 23 21 22 23 24 24 23 26 28 29 28 25 27 25 28 26 27 26 28 33 35 36 36 37 36 35 35
34 34 35 34 31 29 29 27 27 24 21 19 19 20 19 22 21 22 22 26 27 28 25 25 29 29 33 28 27 30 34 35 38 38 38 37 36 35
33 34 33 30 28 26 25 25 23 17 17 19 18 18 20 18 21 21 22 22 26 27 25 27 31 33 34 37 37 38 40 40 41 40 39 37 36 37
29 28 27 24 22 21 18 16 17 13 15 18 19 20 20 22 20 21 23 24 23 26 29 31 35 37 39 42 43 37 39 38 38 40 38 37 36 35
20 18 16 18 17 11 16 13 14 15 16 18 20 20 20 21 24 25 27 27 26 28 31 33 36 39 38 42 45 44 45 42 39 37 39 41 40 38
13 16 15 16 16 11 12 16 19 18 18 19 20 20 21 23 27 28 29 30 33 34 33 34 35 38 41 40 42 46 43 44 43 43 42 41 38 34
12 14 12 13 15 16 19 19 19 19 21 22 23 24 25 26 28 30 32 33 36 37 38 37 37 39 39 41 45 44 45 45 42 41 41 43 39 36
16 14 15 16 17 20 19 19 20 21 22 23 24 26 29 31 33 33 33 35 37 38 40 40 42 44 44 42 40 45 43 44 43 42 42 44 43 36
16 17 17 19 20 20 20 21 21 22 23 25 27 29 30 32 34 35 36 38 39 40 41 42 43 44 48 50 43 40 46 45 45 44 41 40 41 36
18 20 20 20 21 21 23 23 24 25 26 28 29 31 32 34 35 36 36 38 39 40 40 40 41 43 47 50 51 46 38 42 42 44 42 38 35 33
21 21 22 23 23 24 25 26 26 27 28 29 31 31 33 33 34 35 37 38 38 39 42 42 40 41 41 42 46 46 41 38 38 38 37 35 32 29
23 23 24 24 24 25 26 26 27 28 29 29 30 32 33 33 34 35 36 38 38 39 40 39 38 39 41 43 45 44 42 39 36 34 31 29 26 23
24 23 24 25 25 26 26 27 28 28 29 30 31 32 32 33 33 33 34 35 37 38 38 39 39 38 39 39 38 38 39 38 35 34 30 30 35 36
Wind_Direction
243 254 268 272 275 281 283 285 290 292 293 295 295 296 295 297 292 296 291 283 266 261 265 263 267 268 270 279 282 285 292 298 302 305 307 308 310 311
246 254 262 274 276 280 281 284 286 290 291 294 295 296 299 299 296 297 296 283 276 268 267 265 264 267 270 274 277 281 288 296 302 305 307 308 309 310
236 246 262 273 277 279 281 282 284 286 287 293 295 297 297 294 300 299 303 285 283 272 266 267 266 267 265 273 274 284 291 295 300 303 306 309 309 310
236 253 253 271 270 273 275 277 281 285 288 290 294 297 297 299 297 295 300 298 288 283 270 264 264 267 269 276 278 283 290 294 300 303 306 308 309 310
247 256 256 267 264 269 273 277 282 286 288 292 294 298 300 302 298 298 294 296 287 282 272 267 262 272 269 280 280 286 291 297 299 301 304 307 309 310
251 253 253 257 261 270 274 276 280 284 286 290 295 297 299 302 299 297 295 292 292 287 283 277 271 275 274 280 282 289 290 297 300 303 305 307 308 310
256 258 260 261 262 264 275 278 281 282 286 289 292 296 296 299 298 300 295 295 300 291 291 289 285 286 289 295 293 289 291 299 303 304 305 306 307 309
261 265 267 266 262 262 264 269 276 278 280 285 290 291 294 294 297 297 296 297 294 303 294 287 294 291 292 294 293 290 295 301 303 304 304 304 306 308
268 272 275 276 275 277 277 281 284 285 286 284 287 292 297 296 296 296 296 298 296 299 298 291 294 293 294 294 293 296 300 306 307 306 306 306 306 307
275 275 277 280 279 280 283 285 288 291 291 292 292 296 300 303 301 301 299 303 308 303 307 299 299 296 298 298 297 300 303 307 309 310 311 311 310 309
280 282 280 279 278 275 278 282 289 295 304 306 309 312 313 314 312 308 307 297 303 304 308 307 304 301 304 303 304 305 307 310 312 313 314 315 314 312
283 287 288 284 283 279 276 276 280 287 294 305 311 321 325 324 325 316 314 307 305 308 315 310 310 311 308 310 310 311 313 314 314 315 314 313 312 313
283 287 291 291 288 286 284 282 281 285 304 306 323 323 328 328 322 324 323 320 311 310 318 315 310 310 308 308 309 311 312 313 314 314 314 313 313 313
289 297 298 294 296 296 297 299 291 304 315 317 322 323 329 329 325 328 324 324 324 317 317 315 309 308 308 308 309 314 315 316 316 314 314 314 314 313
302 306 310 315 309 297 321 319 310 326 332 328 324 324 328 332 319 322 322 321 322 319 317 316 312 310 310 309 310 312 314 315 316 316 317 315 314 314
315 323 326 339 328 327 342 333 335 341 340 335 329 329 330 329 323 326 322 320 316 315 320 320 318 317 314 312 311 311 313 312 314 314 313 313 314 314
336 337 332 338 338 333 338 345 346 346 338 334 331 328 327 326 322 324 321 319 316 316 317 318 320 319 317 316 314 314 314 314 316 317 317 314 313 313
339 334 332 331 329 332 336 341 342 340 338 335 333 328 325 323 320 322 323 321 320 319 319 320 320 318 317 316 317 316 317 315 316 315 314 311 310 312
331 333 330 335 338 338 336 336 338 339 336 331 329 327 326 325 325 324 323 323 322 321 320 320 320 319 316 314 318 321 316 315 314 313 313 311 310 310
332 332 333 337 337 335 333 333 333 332 330 330 331 331 330 328 326 326 326 326 325 324 323 324 323 322 318 316 315 318 319 317 316 313 313 313 311 311
339 339 337 335 333 332 331 332 333 332 333 333 332 333 332 331 330 329 328 327 327 326 324 324 326 326 324 324 320 320 322 322 319 316 315 312 309 308
341 340 338 339 339 338 336 335 335 334 334 333 333 333 333 332 330 330 330 328 328 328 327 329 332 331 329 327 324 325 325 326 326 323 319 311 307 301
337 338 339 339 339 339 337 336 336 335 336 335 334 334 334 332 333 332 333 332 330 331 332 332 333 335 334 333 331 330 330 331 331 329 325 309 271 255